Webcams

EDPO Webcam Blick Richtung Osten (local time)

Webcam

Info zum Bild:

  • Blick zum Kloster Mariahilf, Entfernung ca. 3km
  • Blick zur Kirche St. Johannes, Entfernung ca. 1km
  • Blick zu den beiden Windrädern, Entfernung ca. 6km

EDPO Webcam Blick Richtung Westen (local time)

Webcam

Info zum Bild:

  • Blick zum Tyrolsberg, Entfernung ca. 3,5km

Dillberg Webcam Blick Richtung Westen zum Sender (local time)

Webcam

Info zum Bild:

  • Blick zum Dillberg Sender, Entfernung ca. 0,6 km
  • Höhe 2.716 ft über MSL Hindernis Höhe Sender (laut ICAO Karte)
  • Höhe 1.322 ft über EDPO Höhe Sender
  • Nord Platzrundenhöhe EDPO 2.200 ft

Dillberg Webcam Blick Richtung Osten zu EDPO (local time)

Webcam

Info zum Bild:

  • Blick vom Dillberg Richtung Neumarkt, Höhe 555ft über EDPO

Sparkasse Webcam Blick Richtung Nord-West über Neumarkt


Snapshot

Info zum Bild:

Nürnberger Fernsehturm (Rundum CAM)


METAR Informationen der nächstgelegenen Flughäfen


EDDN / Flughafen Nürnberg „Albrecht Dürer“

EDDN 082050Z 08004KT CAVOK 01/M02 Q1020 NOSIG

ETIC / Fliegerhorst Grafenwöhr AAF

ETIC 082056Z AUTO 00000KT 9999 OVC055 M01/M02 A3011 RMK AO2 SLP223 T10081022 50000 $

ETIH / Fliegerhorst Hohenfels AAF

ETIH 082056Z AUTO 00000KT 9999 OVC060 00/M03 A3013 RMK AO2 SLP227 T10011035 58001 $